SAS152 EDXW-EKVG

Flight info

Callsign SAS152
Flight time N/A
Altitude 32000
Route OLDIP1B OLDIP DCT ATTUS DCT BAVTA P613 KARLI DCT SPA DCT SUM DCT PEMOS/M070F320 DCT ODEVA DCT MY
Aircraft RJ70/M-SDFGIRWY/LB1

Departure

Time 2026-04-21 09:18
Airport Westerland Sylt Airport (EDXW)

Arrival

Time N/A
Airport Vágar Airport (EKVG)
Time Latitude Longitude Altitude Speed Heading
2026-04-21 09:06 54.91386 8.33141 28 ft 0 kts 270°
2026-04-21 09:10 54.91386 8.33142 28 ft 0 kts 269°
2026-04-21 09:10 54.91385 8.33143 28 ft 0 kts 269°
2026-04-21 09:10 54.91385 8.33144 28 ft 0 kts 269°
2026-04-21 09:10 54.91386 8.33144 28 ft 0 kts 269°
2026-04-21 09:13 54.91385 8.33141 28 ft 1 kts 261°
2026-04-21 09:14 54.91372 8.33146 28 ft 6 kts 157°
2026-04-21 09:14 54.91300 8.33174 28 ft 13 kts 174°
2026-04-21 09:14 54.91208 8.33179 33 ft 14 kts 179°
2026-04-21 09:14 54.91116 8.33188 34 ft 14 kts 163°
2026-04-21 09:15 54.91086 8.33331 33 ft 15 kts 69°
2026-04-21 09:15 54.91139 8.33490 32 ft 16 kts 59°
2026-04-21 09:15 54.91193 8.33649 33 ft 15 kts 60°
2026-04-21 09:15 54.91244 8.33802 34 ft 14 kts 60°
2026-04-21 09:16 54.91290 8.33951 35 ft 15 kts 69°
2026-04-21 09:16 54.91250 8.34114 36 ft 18 kts 143°
2026-04-21 09:16 54.91139 8.34249 37 ft 21 kts 143°
2026-04-21 09:16 54.91014 8.34409 36 ft 24 kts 144°
2026-04-21 09:17 54.90870 8.34581 35 ft 26 kts 144°
2026-04-21 09:17 54.90737 8.34746 35 ft 22 kts 144°
2026-04-21 09:17 54.90716 8.34803 35 ft 11 kts 331°
2026-04-21 09:17 54.90922 8.34546 36 ft 85 kts 324°
2026-04-21 09:18 54.91649 8.33680 240 ft 150 kts 332°
2026-04-21 09:18 54.92444 8.32635 1283 ft 137 kts 330°
2026-04-21 09:18 54.93223 8.31613 2391 ft 147 kts 332°
2026-04-21 09:18 54.94097 8.30504 3490 ft 162 kts 333°
2026-04-21 09:19 54.95035 8.29351 4685 ft 167 kts 332°
2026-04-21 09:19 54.95992 8.28178 5890 ft 169 kts 332°
2026-04-21 09:19 54.96953 8.26996 7061 ft 168 kts 331°
2026-04-21 09:19 54.97892 8.25795 8122 ft 168 kts 324°
2026-04-21 09:20 54.98385 8.23932 9074 ft 180 kts 268°
2026-04-21 09:20 54.98006 8.21936 10018 ft 172 kts 242°
2026-04-21 09:20 54.97400 8.19897 10291 ft 205 kts 239°
2026-04-21 09:20 54.96652 8.17740 10358 ft 218 kts 235°
2026-04-21 09:21 54.95791 8.15522 10383 ft 222 kts 233°
2026-04-21 09:21 54.94803 8.13445 10941 ft 216 kts 210°
2026-04-21 09:21 54.93456 8.12741 11784 ft 199 kts 166°
2026-04-21 09:21 54.92222 8.13589 12493 ft 191 kts 143°
2026-04-21 09:22 54.91081 8.14806 13199 ft 192 kts 140°
2026-04-21 09:22 54.89985 8.16145 13924 ft 193 kts 137°
2026-04-21 09:22 54.88918 8.17564 14573 ft 194 kts 136°
2026-04-21 09:22 54.87854 8.19030 15190 ft 196 kts 134°
2026-04-21 09:23 54.86805 8.20514 15713 ft 198 kts 134°
2026-04-21 09:23 54.85727 8.22057 16335 ft 199 kts 134°
2026-04-21 09:23 54.84670 8.23575 16988 ft 201 kts 134°
2026-04-21 09:23 54.83591 8.25125 17719 ft 203 kts 134°
2026-04-21 09:24 54.82491 8.26691 18430 ft 206 kts 136°
2026-04-21 09:24 54.81307 8.28144 19099 ft 210 kts 139°
2026-04-21 09:24 54.80074 8.29538 19743 ft 213 kts 141°
2026-04-21 09:24 54.78811 8.30915 20413 ft 215 kts 141°
2026-04-21 09:25 54.77535 8.32283 21072 ft 217 kts 141°
2026-04-21 09:25 54.76240 8.33663 21722 ft 219 kts 141°
2026-04-21 09:25 54.74930 8.35055 22337 ft 225 kts 141°
2026-04-21 09:25 54.73560 8.36540 22692 ft 240 kts 141°
2026-04-21 09:26 54.72122 8.38115 23034 ft 255 kts 142°
2026-04-21 09:26 54.70567 8.39819 23476 ft 266 kts 142°
2026-04-21 09:26 54.68991 8.41529 24048 ft 268 kts 140°
2026-04-21 09:26 54.67784 8.43816 24520 ft 259 kts 112°
2026-04-21 09:27 54.67085 8.46677 25033 ft 259 kts 108°
2026-04-21 09:27 54.66450 8.49592 25572 ft 260 kts 107°
2026-04-21 09:27 54.65833 8.52549 26077 ft 263 kts 107°
2026-04-21 09:27 54.65221 8.55466 26555 ft 265 kts 107°
2026-04-21 09:28 54.64578 8.58458 27036 ft 266 kts 108°
2026-04-21 09:28 54.63914 8.61456 27506 ft 268 kts 108°
2026-04-21 09:28 54.63228 8.64468 27959 ft 270 kts 109°
2026-04-21 09:28 54.62554 8.67462 28480 ft 266 kts 104°
2026-04-21 09:29 54.62559 8.70612 28841 ft 268 kts 72°
2026-04-21 09:29 54.63638 8.73269 29185 ft 281 kts 43°
2026-04-21 09:29 54.65477 8.74639 29518 ft 301 kts 14°
2026-04-21 09:29 54.67612 8.74308 29825 ft 321 kts 347°
2026-04-21 09:30 54.69568 8.72268 30084 ft 338 kts 321°
2026-04-21 09:30 54.71184 8.69199 30233 ft 349 kts 314°
2026-04-21 09:30 54.72715 8.65925 30569 ft 349 kts 312°
2026-04-21 09:30 54.74179 8.62684 30965 ft 346 kts 311°
2026-04-21 09:31 54.75530 8.59248 31194 ft 351 kts 296°
2026-04-21 09:31 54.76069 8.55128 31404 ft 355 kts 269°
2026-04-21 09:31 54.75599 8.50966 31615 ft 352 kts 243°
2026-04-21 09:31 54.74238 8.47536 31823 ft 344 kts 217°
2026-04-21 09:32 54.72251 8.45426 32021 ft 331 kts 191°
2026-04-21 09:32 54.70027 8.44983 32163 ft 319 kts 166°
2026-04-21 09:32 54.68007 8.46259 32327 ft 305 kts 139°
2026-04-21 09:32 54.66641 8.48874 32390 ft 290 kts 112°
2026-04-21 09:33 54.66023 8.52155 32403 ft 288 kts 102°
2026-04-21 09:33 54.65552 8.55516 32388 ft 289 kts 102°
2026-04-21 09:33 54.65083 8.58889 32367 ft 288 kts 101°
2026-04-21 09:33 54.64587 8.62244 32361 ft 289 kts 106°
2026-04-21 09:34 54.63756 8.65415 32363 ft 291 kts 117°
2026-04-21 09:34 54.62752 8.68415 32350 ft 286 kts 105°
2026-04-21 09:34 54.62643 8.71731 32386 ft 285 kts 76°
2026-04-21 09:34 54.63604 8.74724 32391 ft 295 kts 49°
2026-04-21 09:35 54.65402 8.76578 32409 ft 311 kts 21°
2026-04-21 09:35 54.67609 8.76879 32411 ft 328 kts
2026-04-21 09:35 54.69919 8.76521 32387 ft 339 kts
2026-04-21 09:35 54.72300 8.76036 32391 ft 349 kts 358°
2026-04-21 09:36 54.77226 8.75186 32391 ft 360 kts
2026-04-21 09:36 54.82250 8.75872 32386 ft 370 kts 14°
2026-04-21 09:37 54.87411 8.77336 32367 ft 382 kts 15°
2026-04-21 09:37 54.90111 8.77543 32366 ft 399 kts 357°
2026-04-21 09:37 54.92856 8.76393 32376 ft 411 kts 348°
2026-04-21 09:38 54.98270 8.72860 32359 ft 417 kts 342°
2026-04-21 09:38 55.03626 8.68993 32357 ft 417 kts 342°
2026-04-21 09:39 55.08958 8.65244 32356 ft 414 kts 343°
2026-04-21 09:39 55.14321 8.61562 32358 ft 415 kts 343°
2026-04-21 09:40 55.19700 8.57882 32369 ft 415 kts 343°
2026-04-21 09:40 55.25092 8.54193 32353 ft 418 kts 343°
2026-04-21 09:41 55.28054 8.52167 32365 ft 419 kts 343°